FW3241 Weather Reports


time (UTC)temp
F
wind
direction
speed
knots
gust
knots
rain 1hr
in
rain 24hr
in
rain mn
in
humidity
%
barometer
mb
20260903040047 72 165 0.0 0.0 0.00 0.00 0.00 61 1020.0
20260903034546 72 165 0.0 0.0 0.00 0.00 0.00 60 1019.9
20260903033048 73 165 0.0 0.0 0.00 0.00 0.00 60 1020.2
20260903031546 73 165 0.0 0.0 0.00 0.00 0.00 60 1020.3
20260903030051 73 165 0.0 0.9 0.00 0.00 0.00 61 1020.3
20260903024546 72 165 0.0 0.0 0.00 0.00 0.00 62 1020.3
20260903023046 72 165 0.0 0.0 0.00 0.00 0.00 62 1020.1
20260903021549 72 165 0.0 0.0 0.00 0.00 0.00 62 1020.3
20260903020043 72 165 0.0 0.0 0.00 0.00 0.00 61 1020.2
20260903014551 73 165 0.0 0.0 0.00 0.00 0.00 61 1020.2
20260903013043 73 165 0.0 0.0 0.00 0.00 0.00 61 1019.8
20260903011600 73 165 0.0 0.0 0.00 0.00 0.00 61 1019.6
20260903010044 72 165 0.0 0.0 0.00 0.00 0.00 63 1019.5
20260903004541 73 165 0.0 0.9 0.00 0.00 0.00 63 1019.2
20260903003044 73 165 0.0 0.0 0.00 0.00 0.00 63 1019.1
20260903001540 73 165 0.0 0.0 0.00 0.00 0.00 62 1018.9
20260903000049 74 165 0.0 0.0 0.00 0.00 0.00 61 1018.8
20260902234541 75 165 0.0 0.0 0.00 0.00 0.00 60 1018.9
20260902233049 75 165 0.0 0.0 0.00 0.00 0.00 60 1018.9
20260902231538 76 165 0.0 0.0 0.00 0.00 0.00 59 1019.0
20260902230043 76 165 0.0 0.0 0.00 0.00 0.00 57 1019.0
20260902224535 76 165 0.0 0.0 0.00 0.00 0.00 56 1019.1
20260902223035 77 165 0.0 0.0 0.00 0.00 0.00 57 1019.1
20260902221534 78 165 0.0 0.0 0.00 0.00 0.00 58 1019.3
20260902220043 79 165 0.0 1.7 0.00 0.00 0.00 56 1019.3
20260902214551 79 165 0.0 1.7 0.00 0.00 0.00 56 1019.4
20260902213032 79 165 0.0 1.7 0.00 0.00 0.00 54 1019.3
20260902211531 79 165 0.0 1.7 0.00 0.00 0.00 54 1019.3
20260902210034 78 165 0.0 1.7 0.00 0.00 0.00 57 1019.4
20260902204530 79 165 0.9 1.7 0.00 0.00 0.00 55 1019.4
20260902203030 78 165 0.0 1.7 0.00 0.00 0.00 52 1019.5
20260902201537 78 165 0.0 1.7 0.00 0.00 0.00 51 1019.5
20260902200027 79 165 0.9 1.7 0.00 0.00 0.00 51 1019.7
20260902194524 79 165 0.0 1.7 0.00 0.00 0.00 48 1019.8
20260902193023 79 165 0.9 1.7 0.00 0.00 0.00 50 1020.1
20260902191525 79 165 0.0 1.7 0.00 0.00 0.00 48 1020.2
20260902190020 79 165 0.0 1.7 0.00 0.00 0.00 47 1020.3
20260902184522 80 164 0.0 0.0 0.00 0.00 0.00 46 1020.4
20260902183019 80 164 0.0 0.0 0.00 0.00 0.00 45 1020.5
20260902181518 82 164 0.0 0.0 0.00 0.00 0.00 48 1020.5
20260902180016 82 164 0.0 0.0 0.00 0.00 0.00 48 1020.7
20260902174514 80 164 0.0 0.0 0.00 0.00 0.00 48 1020.7
20260902173018 79 164 0.0 0.0 0.00 0.00 0.00 58 1021.0
20260902171504 77 164 0.0 0.0 0.00 0.00 0.00 62 1021.0
20260902170100 75 164 0.0 0.9 0.00 0.00 0.00 66 1021.2
20260902164557 74 164 0.0 1.7 0.00 0.00 0.00 67 1021.4
20260902163055 74 164 0.0 1.7 0.00 0.00 0.00 65 1021.6
20260902161553 73 164 0.0 0.9 0.00 0.00 0.00 65 1021.7
20260902154549 73 164 0.0 0.0 0.00 0.00 0.00 68 1021.8
20260902153050 73 164 0.0 0.0 0.00 0.00 0.00 71 1021.7
20260902151547 73 164 0.0 0.0 0.00 0.00 0.00 71 1021.5
20260902150045 72 164 0.0 0.9 0.00 0.00 0.00 69 1021.5
20260902144541 71 164 0.0 0.0 0.00 0.00 0.00 73 1021.4
20260902143040 71 164 0.0 0.0 0.00 0.00 0.00 74 1021.3
20260902141549 70 164 0.0 0.0 0.00 0.00 0.00 76 1021.4
20260902140036 70 164 0.0 0.0 0.00 0.00 0.00 75 1021.3
20260902134536 69 164 0.0 0.0 0.00 0.00 0.00 74 1021.3
20260902133047 69 164 0.0 0.0 0.00 0.00 0.00 74 1021.3
20260902131542 69 164 0.0 0.0 0.00 0.00 0.00 75 1021.5
20260902130034 68 164 0.0 0.0 0.00 0.00 0.00 74 1021.4
20260902124533 68 164 0.0 0.0 0.00 0.00 0.00 75 1021.3
20260902123048 68 164 0.0 0.0 0.00 0.00 0.00 75 1021.3
20260902121534 68 164 0.0 0.0 0.00 0.00 0.00 75 1021.4
20260902120035 68 164 0.0 0.0 0.00 0.00 0.00 75 1021.2
20260902114539 68 164 0.0 0.0 0.00 0.00 0.00 74 1021.1
20260902113028 68 164 0.0 0.0 0.00 0.00 0.00 74 1021.1
20260902111531 68 164 0.0 0.0 0.00 0.00 0.00 75 1020.9
20260902110027 68 164 0.0 0.0 0.00 0.00 0.00 74 1020.8
20260902104526 68 164 0.0 0.0 0.00 0.00 0.00 74 1020.8
20260902103029 68 164 0.0 0.0 0.00 0.00 0.00 75 1021.0
20260902101527 68 164 0.0 0.0 0.00 0.00 0.00 75 1020.8
20260902100023 67 164 0.0 0.0 0.00 0.00 0.00 75 1020.7
20260902094522 67 164 0.0 0.0 0.00 0.00 0.00 75 1020.5
20260902093022 67 164 0.0 0.0 0.00 0.00 0.00 75 1020.4
20260902091521 68 164 0.0 0.0 0.00 0.00 0.00 75 1020.2
20260902090030 68 164 0.0 0.0 0.00 0.00 0.00 75 1020.1
20260902084519 68 164 0.0 0.0 0.00 0.00 0.00 75 1020.1
20260902083020 68 164 0.0 0.0 0.00 0.00 0.00 75 1020.1
20260902081519 68 164 0.0 0.0 0.00 0.00 0.00 75 1020.1
20260902080017 68 164 0.0 0.0 0.00 0.00 0.00 74 1020.1
20260902074516 69 164 0.0 0.0 0.00 0.00 0.00 74 1020.0
20260902073014 69 164 0.0 0.0 0.00 0.00 0.00 73 1020.1
20260902071513 69 164 0.0 0.0 0.00 0.00 0.00 72 1020.1
20260902070012 69 164 0.0 0.0 0.00 0.00 0.00 72 1020.1
20260902064518 69 164 0.0 0.0 0.00 0.00 0.00 73 1020.2
20260902063011 69 164 0.0 0.0 0.00 0.00 0.00 73 1020.4
20260902061510 69 164 0.0 0.0 0.00 0.00 0.00 73 1020.4
20260902060009 69 164 0.0 0.0 0.00 0.00 0.00 72 1020.5
20260902054511 69 164 0.0 0.0 0.00 0.00 0.00 72 1020.8
20260902053008 69 164 0.0 0.0 0.00 0.00 0.00 72 1020.7
20260902051507 69 164 0.0 0.0 0.00 0.00 0.00 72 1020.6
20260902050008 70 164 0.0 0.0 0.00 0.00 0.00 72 1020.6
20260902044508 70 164 0.0 0.0 0.00 0.00 0.00 71 1020.4
20260902043006 70 164 0.0 0.0 0.00 0.00 0.00 71 1020.4
20260902041515 70 164 0.0 0.0 0.00 0.00 0.00 71 1020.3